Theta_e
352 351 351 351 347 349 350 350 350 349 346 349 350 352 351 353 349 354 351 347 347 346 345 345 347 349 348 348 349 349 347 341 346 345 343 342 342 344
351 353 351 353 352 350 350 351 350 350 351 348 351 352 352 352 348 349 347 350 347 347 346 346 347 347 347 347 346 347 350 342 346 346 343 341 340 341
353 352 354 352 351 352 353 351 352 352 351 350 350 352 349 351 352 349 351 352 344 347 347 348 350 349 346 347 347 346 348 342 347 343 340 341 340 340
353 353 353 351 352 350 351 350 352 352 351 352 350 350 347 348 349 351 350 350 338 342 346 347 347 346 344 344 343 343 344 347 344 341 339 338 338 339
352 353 350 353 352 351 350 352 350 353 352 352 351 351 351 352 348 349 347 347 345 337 340 338 340 343 345 346 347 347 347 347 346 342 346 346 343 341
347 346 348 348 347 347 349 348 348 348 351 351 350 349 351 353 346 349 347 344 346 336 331 333 334 334 338 339 342 344 346 347 348 345 342 344 346 347
352 349 351 347 346 347 348 348 347 348 347 350 349 350 351 347 346 347 350 342 341 344 331 329 324 321 321 326 331 336 340 342 343 344 344 342 342 341
348 348 348 347 347 347 346 347 348 348 350 351 352 352 351 344 343 344 348 347 341 339 331 326 320 317 316 315 321 323 327 331 335 336 331 332 337 336
350 346 347 346 347 345 346 346 346 346 345 349 351 351 345 342 342 343 346 343 336 333 338 327 322 315 312 309 312 318 322 323 322 321 321 321 320 320
344 347 347 344 343 344 341 339 338 337 338 336 339 339 338 338 340 343 346 336 333 326 336 333 324 319 312 306 303 306 309 317 321 321 318 313 310 309
342 343 342 341 341 342 340 335 332 333 335 334 332 332 334 334 334 340 340 342 340 327 324 326 326 318 315 312 307 301 300 301 302 303 304 304 304 306
338 336 336 335 334 336 338 336 330 329 326 329 326 326 328 329 332 332 331 332 332 325 318 323 322 327 323 313 310 308 306 301 300 300 301 301 302 308
337 336 334 332 327 325 321 325 326 326 326 323 322 322 320 320 320 320 320 322 322 319 311 319 318 318 322 320 309 308 305 304 305 305 303 300 301 303
335 335 333 329 319 319 318 319 323 323 322 319 319 317 315 313 313 313 312 312 311 309 306 310 314 313 315 316 314 307 307 304 304 304 304 303 303 302
325 320 318 318 318 320 320 319 318 318 317 317 316 315 314 310 309 309 308 306 304 303 303 304 309 308 310 312 307 305 306 304 303 303 304 304 304 304
316 317 317 317 319 320 320 319 320 318 317 314 312 310 310 310 309 308 308 307 305 303 301 302 306 305 304 304 305 304 303 305 303 303 304 303 303 303
316 315 313 312 313 313 314 314 313 313 314 312 312 310 309 308 307 306 306 306 306 304 303 303 302 301 303 304 304 303 304 304 303 303 304 304 303 303
312 312 312 311 312 313 314 313 311 310 310 309 309 308 307 306 305 304 303 303 302 302 302 302 303 303 303 301 302 303 303 303 303 303 303 304 304 304
305 310 311 310 309 309 309 307 306 306 305 306 307 306 305 303 303 302 302 302 302 302 302 302 303 304 305 307 302 299 303 303 303 304 303 303 304 303
303 306 308 311 310 308 308 307 306 305 304 304 303 304 303 303 302 302 302 302 302 302 302 302 302 302 304 304 303 302 298 302 302 303 303 303 303 302
307 308 311 310 309 309 308 307 306 304 304 304 303 302 301 301 301 301 300 300 300 301 302 301 300 297 300 300 303 303 302 300 299 301 302 303 303 303
309 310 311 311 310 310 309 306 305 304 303 302 302 301 300 300 300 300 300 301 301 302 302 300 300 300 301 302 302 302 302 302 302 300 299 300 302 303
311 311 311 311 310 309 307 306 306 304 302 301 301 300 299 299 299 299 299 300 300 300 300 301 300 300 300 300 299 301 301 302 302 302 302 302 300 300
Wind_Speed
7 7 7 7 5 5 4 4 5 4 3 1 2 5 4 4 6 6 8 9 9 9 10 9 9 8 8 9 10 9 4 2 3 4 2 5 8 9
9 8 6 6 6 6 6 6 5 5 4 2 2 3 4 3 5 6 7 7 9 10 11 12 13 12 11 13 15 9 5 5 1 4 3 3 5 7
9 10 10 9 7 7 6 6 6 5 7 6 4 4 3 4 6 7 6 7 10 11 11 12 12 12 11 12 12 3 6 4 2 4 3 1 2 4
11 11 11 9 10 10 8 7 7 7 8 8 6 5 5 4 5 6 7 7 12 14 13 12 11 10 11 13 13 10 6 4 6 5 4 3 2 1
13 12 12 11 11 10 10 9 9 8 7 6 6 4 3 1 1 4 7 8 8 11 14 17 17 15 14 14 13 10 8 7 5 2 3 4 4 2
14 15 14 16 14 13 12 10 11 9 9 9 8 6 3 2 1 4 6 7 7 9 14 16 16 17 18 17 16 14 12 11 7 4 3 2 3 4
10 11 11 12 12 12 12 11 10 10 10 6 6 6 4 2 1 2 5 8 8 6 9 12 14 17 21 20 19 16 13 13 15 12 7 3 3 4
12 12 14 14 11 11 10 10 9 7 7 6 6 5 4 3 3 3 4 8 4 5 8 10 10 15 16 18 14 14 18 19 18 17 18 16 11 10
11 14 16 10 10 9 9 9 10 11 11 8 6 4 4 4 4 3 2 3 5 5 5 7 7 13 12 14 15 12 13 16 18 18 17 17 14 13
8 7 10 10 8 6 5 4 4 5 7 4 5 4 4 3 4 2 4 8 6 4 6 4 5 9 9 12 12 10 10 9 9 9 10 10 10 9
6 5 6 5 8 9 7 6 4 2 2 5 6 5 3 5 6 4 4 7 4 2 1 5 8 7 6 5 7 14 12 10 8 6 5 4 6 9
4 1 2 1 2 2 6 7 7 5 3 3 4 5 5 5 4 6 3 6 3 4 1 4 9 9 5 4 3 4 6 10 11 11 8 6 4 5
10 8 6 5 4 5 6 7 8 6 6 4 4 5 6 6 6 5 3 2 0 3 3 2 3 6 5 6 4 2 5 7 8 10 13 14 14 10
11 8 7 6 4 5 5 3 4 7 8 6 4 4 4 5 7 7 6 6 6 6 3 2 2 3 3 2 0 2 4 8 9 8 8 10 12 14
6 6 6 6 6 6 8 9 7 6 7 7 6 5 4 5 5 5 5 6 6 5 5 5 5 4 3 2 2 3 2 4 8 7 7 7 8 8
7 8 7 6 5 5 5 4 3 5 3 4 4 3 4 2 2 1 3 3 4 7 6 4 5 7 9 7 5 3 4 1 5 5 5 5 6 6
5 6 6 5 5 4 5 4 3 3 2 3 3 3 3 3 2 2 3 2 3 2 4 4 6 6 8 5 3 3 3 4 5 6 4 3 4 5
3 2 1 2 3 2 3 4 3 3 2 3 3 3 1 2 2 4 5 3 5 5 3 1 3 3 2 5 6 2 2 2 3 4 4 3 1 4
1 2 4 6 4 3 3 3 4 4 4 2 1 4 4 4 4 4 3 4 4 4 3 2 1 4 6 2 2 4 2 3 3 2 3 4 5 4
3 6 8 9 8 7 6 5 5 4 4 3 1 2 3 4 4 4 4 4 4 2 2 2 2 2 3 1 1 1 3 1 3 4 5 6 6 9
4 6 10 13 14 12 10 9 8 7 5 4 3 3 3 3 4 4 4 5 6 4 2 1 1 3 1 1 2 2 1 6 4 4 6 8 8 8
6 6 8 9 12 11 9 7 7 8 7 7 7 6 6 5 3 3 4 5 3 3 3 2 1 2 2 2 2 3 3 5 8 8 5 3 6 7
3 3 6 7 7 7 7 7 7 7 7 7 6 8 7 6 6 6 4 3 2 1 0 1 1 1 2 2 4 6 6 6 7 7 7 9 10 13
Wind_Direction
257 267 264 259 254 261 271 278 306 309 314 327 343 10 30 32 40 43 45 15 4 357 355 348 334 326 314 308 309 303 294 257 349 348 288 243 240 238
251 240 246 240 242 248 248 256 264 293 289 325 319 349 3 9 16 28 37 23 4 359 357 353 347 340 325 314 310 299 236 204 269 336 326 245 238 237
240 241 243 246 247 246 244 255 261 259 279 292 271 264 287 338 1 20 49 63 40 27 22 20 15 10 5 360 8 117 155 134 341 346 346 293 234 222
247 250 243 242 241 250 246 239 250 249 264 278 287 279 263 329 21 49 76 77 70 40 41 40 39 42 49 57 64 76 75 34 5 4 35 45 56 143
249 251 250 238 237 238 242 244 253 241 245 250 271 266 263 343 58 110 97 100 88 49 53 61 58 55 51 44 45 40 23 348 345 30 37 44 59 67
251 252 242 250 247 244 240 241 251 250 246 258 267 261 251 241 162 170 120 105 107 73 63 66 66 66 64 62 52 45 36 29 12 330 324 359 29 60
252 245 241 247 250 246 236 242 242 245 257 253 265 262 243 225 178 140 153 118 93 91 70 58 55 48 46 56 65 59 58 62 54 43 36 4 355 30
251 252 254 251 258 259 253 243 235 241 245 248 254 252 247 214 173 162 167 186 156 112 101 78 71 69 72 70 77 66 77 83 83 82 81 80 79 78
247 248 250 247 246 247 254 257 253 242 236 240 268 259 248 219 189 183 176 142 123 144 149 108 99 87 77 70 79 84 95 97 89 91 96 96 87 84
260 246 239 236 233 229 228 220 226 239 232 231 247 255 259 232 208 213 172 154 124 76 166 162 134 106 92 72 72 84 92 94 89 89 94 87 78 67
264 237 224 246 256 259 232 218 215 234 301 249 250 251 225 220 210 200 208 210 187 157 99 175 170 135 119 98 55 53 56 70 75 72 65 67 89 57
258 144 169 241 276 248 243 225 212 205 184 120 91 105 112 121 168 185 189 250 237 191 2 195 177 187 182 155 122 87 43 47 46 53 62 85 106 71
246 249 253 258 286 268 254 238 226 212 177 141 110 82 82 95 94 92 109 86 123 82 335 120 222 204 230 157 160 73 53 32 35 28 26 35 47 64
246 244 243 246 248 239 215 202 201 171 162 151 123 98 76 77 78 83 73 72 89 106 73 144 284 281 247 188 168 32 28 20 21 37 30 23 27 30
204 200 180 186 183 136 123 129 143 172 171 168 168 163 136 142 116 107 97 82 74 74 76 116 105 86 106 114 132 40 22 21 23 14 27 38 35 35
155 157 170 195 201 181 168 170 204 229 219 200 159 155 161 162 120 118 119 75 54 50 59 85 91 92 99 97 101 82 60 66 24 21 22 37 42 45
144 152 166 163 154 126 109 97 89 94 121 131 139 150 146 146 122 106 137 183 191 122 74 51 66 98 102 98 97 79 64 67 35 13 39 60 52 41
102 37 317 207 173 136 115 99 85 77 91 118 119 121 140 134 130 100 100 96 110 103 107 103 178 158 134 63 98 120 102 79 38 16 12 348 340 358
248 169 243 261 239 193 156 133 130 139 141 125 173 160 166 165 136 122 131 142 130 110 94 66 329 251 242 235 157 55 352 6 9 359 348 330 315 313
259 237 212 202 212 194 164 157 146 163 157 141 269 260 184 180 181 161 161 163 141 122 121 127 91 348 315 12 149 240 34 3 344 338 333 323 302 305
269 246 212 188 181 182 176 180 173 185 189 173 196 227 242 218 169 167 188 178 152 150 144 144 94 102 257 282 201 211 245 337 351 304 309 313 319 315
288 260 223 209 189 179 171 181 196 199 197 191 191 198 200 202 228 189 200 209 198 160 164 147 10 320 312 318 323 292 299 310 315 324 308 286 305 316
296 231 202 191 180 180 198 209 208 210 215 205 209 193 187 208 185 181 190 193 188 209 284 253 252 298 310 301 307 304 305 305 309 307 294 291 307 315